| time (UTC) | temp C | wind direction | speed KPH | gust KPH | rain 1hr cm | rain 24hr cm | rain mn cm | humidity % | barometer mb |
| 20260506024604 | 26 | 221 | 0.0 | 8.0 | 0.00 | 0.00 | 0.00 | 83 | 1004.0 |
| 20260506024106 | 26 | 231 | 0.0 | 1.6 | 0.00 | 0.00 | 0.00 | 82 | 1003.9 |
| 20260506023824 | 26 | 252 | 0.0 | 1.6 | 0.00 | 0.00 | 0.00 | 82 | 1003.7 |
| 20260506023710 | 26 | 252 | 0.0 | 1.6 | 0.00 | 0.00 | 0.00 | 82 | 1003.7 |
| 20260506023104 | 26 | 296 | 0.0 | 0.0 | 0.00 | 0.00 | 0.00 | 82 | 1003.6 |
| 20260506022603 | 26 | 233 | 0.0 | 0.0 | 0.00 | 0.00 | 0.00 | 82 | 1003.6 |
| 20260506022106 | 26 | 228 | 0.0 | 0.0 | 0.00 | 0.00 | 0.00 | 82 | 1003.6 |
| 20260506021821 | 26 | 217 | 0.0 | 0.0 | 0.00 | 0.00 | 0.00 | 81 | 1003.6 |
| 20260506021708 | 26 | 217 | 0.0 | 0.0 | 0.00 | 0.00 | 0.00 | 81 | 1003.6 |
| 20260506021549 | 26 | 268 | 0.0 | 0.0 | 0.00 | 0.00 | 0.00 | 81 | 1003.5 |
| 20260506021213 | 26 | 268 | 0.0 | 0.0 | 0.00 | 0.00 | 0.00 | 81 | 1003.5 |
| 20260506020603 | 26 | 228 | 0.0 | 0.0 | 0.00 | 0.00 | 0.00 | 81 | 1003.5 |
| 20260506020111 | 26 | 231 | 0.0 | 0.0 | 0.00 | 0.00 | 0.00 | 81 | 1003.4 |
| 20260506015604 | 26 | 254 | 0.0 | 0.0 | 0.00 | 0.00 | 0.00 | 80 | 1003.4 |
| 20260506015105 | 26 | 130 | 0.0 | 0.0 | 0.00 | 0.00 | 0.00 | 80 | 1003.4 |
| 20260506014602 | 26 | 245 | 0.0 | 1.6 | 0.00 | 0.00 | 0.00 | 79 | 1003.3 |
| 20260506014104 | 26 | 176 | 0.0 | 1.6 | 0.00 | 0.00 | 0.00 | 79 | 1003.2 |
| 20260506013601 | 26 | 209 | 0.0 | 1.6 | 0.00 | 0.00 | 0.00 | 79 | 1003.1 |
| 20260506013103 | 26 | 272 | 0.0 | 0.0 | 0.00 | 0.00 | 0.00 | 79 | 1003.1 |
| 20260506013047 | 26 | 183 | 0.0 | 0.0 | 0.00 | 0.00 | 0.00 | 79 | 1003.1 |
| 20260506012709 | 26 | 183 | 0.0 | 0.0 | 0.00 | 0.00 | 0.00 | 79 | 1003.1 |
| 20260506012105 | 26 | 183 | 0.0 | 1.6 | 0.00 | 0.00 | 0.00 | 78 | 1002.9 |
| 20260506011602 | 26 | 127 | 0.0 | 1.6 | 0.00 | 0.00 | 0.00 | 78 | 1002.8 |
| 20260506011104 | 26 | 200 | 0.0 | 0.0 | 0.00 | 0.00 | 0.00 | 78 | 1002.6 |
| 20260506010600 | 27 | 257 | 0.0 | 0.0 | 0.00 | 0.00 | 0.00 | 78 | 1002.6 |
| 20260506010110 | 27 | 235 | 0.0 | 0.0 | 0.00 | 0.00 | 0.00 | 77 | 1002.6 |
| 20260506005601 | 27 | 237 | 0.0 | 0.0 | 0.00 | 0.00 | 0.00 | 77 | 1002.6 |
| 20260506005103 | 27 | 230 | 0.0 | 0.0 | 0.00 | 0.00 | 0.00 | 77 | 1002.6 |
| 20260506004600 | 27 | 250 | 0.0 | 0.0 | 0.00 | 0.00 | 0.00 | 77 | 1002.5 |
| 20260506004102 | 27 | 189 | 0.0 | 0.0 | 0.00 | 0.00 | 0.00 | 76 | 1002.5 |
| 20260506003600 | 27 | 186 | 0.0 | 0.0 | 0.00 | 0.00 | 0.00 | 75 | 1002.5 |
| 20260506003105 | 27 | 142 | 0.0 | 0.0 | 0.00 | 0.00 | 0.00 | 75 | 1002.6 |
| 20260506002601 | 28 | 204 | 0.0 | 0.0 | 0.00 | 0.00 | 0.00 | 73 | 1002.5 |
| 20260506002321 | 28 | 157 | 0.0 | 0.0 | 0.00 | 0.00 | 0.00 | 73 | 1002.4 |
| 20260506002210 | 28 | 157 | 0.0 | 0.0 | 0.00 | 0.00 | 0.00 | 73 | 1002.4 |
| 20260506001559 | 29 | 185 | 0.0 | 9.7 | 0.00 | 0.00 | 0.00 | 71 | 1002.4 |
| 20260506001102 | 29 | 192 | 1.6 | 9.7 | 0.00 | 0.00 | 0.00 | 72 | 1002.3 |
| 20260506000559 | 28 | 193 | 0.0 | 0.0 | 0.00 | 0.00 | 0.00 | 73 | 1002.3 |
| 20260506000323 | 28 | 159 | 0.0 | 0.0 | 0.00 | 0.00 | 0.00 | 76 | 1002.5 |
| 20260506000211 | 28 | 159 | 0.0 | 0.0 | 0.00 | 0.00 | 0.00 | 76 | 1002.5 |
| 20260505235600 | 27 | 179 | 0.0 | 1.6 | 0.00 | 0.00 | 0.00 | 77 | 1002.4 |
| 20260505235102 | 27 | 241 | 0.0 | 8.0 | 0.00 | 0.00 | 0.00 | 77 | 1002.3 |
| 20260505234559 | 27 | 154 | 0.0 | 8.0 | 0.00 | 0.00 | 0.00 | 77 | 1002.3 |
| 20260505234103 | 27 | 183 | 0.0 | 0.0 | 0.00 | 0.00 | 0.00 | 77 | 1002.2 |
| 20260505233818 | 27 | 165 | 0.0 | 0.0 | 0.00 | 0.00 | 0.00 | 77 | 1002.2 |
| 20260505233706 | 27 | 165 | 0.0 | 0.0 | 0.00 | 0.00 | 0.00 | 77 | 1002.2 |
| 20260505233326 | 27 | 255 | 0.0 | 4.8 | 0.00 | 0.00 | 0.00 | 77 | 1002.3 |
| 20260505233211 | 27 | 255 | 0.0 | 4.8 | 0.00 | 0.00 | 0.00 | 77 | 1002.3 |
| 20260505232559 | 27 | 279 | 1.6 | 4.8 | 0.00 | 0.00 | 0.00 | 77 | 1002.3 |
| 20260505232102 | 27 | 230 | 0.0 | 3.2 | 0.00 | 0.00 | 0.00 | 76 | 1002.2 |
| 20260505231559 | 28 | 179 | 0.0 | 3.2 | 0.00 | 0.00 | 0.00 | 76 | 1002.3 |
| 20260505231100 | 28 | 233 | 0.0 | 0.0 | 0.00 | 0.00 | 0.00 | 76 | 1002.2 |
| 20260505230558 | 28 | 231 | 0.0 | 0.0 | 0.00 | 0.00 | 0.00 | 76 | 1002.4 |
| 20260505230112 | 28 | 166 | 0.0 | 0.0 | 0.00 | 0.00 | 0.00 | 75 | 1002.4 |
| 20260505225557 | 28 | 178 | 0.0 | 1.6 | 0.00 | 0.00 | 0.00 | 75 | 1002.4 |
| 20260505225100 | 28 | 228 | 0.0 | 1.6 | 0.00 | 0.00 | 0.00 | 74 | 1002.3 |
| 20260505224553 | 28 | 221 | 0.0 | 1.6 | 0.00 | 0.00 | 0.00 | 73 | 1002.2 |
| 20260505224055 | 28 | 257 | 0.0 | 0.0 | 0.00 | 0.00 | 0.00 | 72 | 1002.1 |
| 20260505223557 | 28 | 221 | 0.0 | 6.4 | 0.00 | 0.00 | 0.00 | 73 | 1002.3 |
| 20260505223059 | 28 | 186 | 0.0 | 6.4 | 0.00 | 0.00 | 0.00 | 73 | 1002.4 |
| 20260505222558 | 28 | 231 | 0.0 | 0.0 | 0.00 | 0.00 | 0.00 | 73 | 1002.3 |
| 20260505222058 | 28 | 292 | 0.0 | 0.0 | 0.00 | 0.00 | 0.00 | 73 | 1002.3 |
| 20260505221601 | 28 | 247 | 0.0 | 0.0 | 0.00 | 0.00 | 0.00 | 74 | 1002.3 |
| 20260505221059 | 28 | 214 | 0.0 | 0.0 | 0.00 | 0.00 | 0.00 | 74 | 1002.3 |
| 20260505220558 | 28 | 238 | 0.0 | 0.0 | 0.00 | 0.00 | 0.00 | 74 | 1002.3 |
| 20260505220322 | 28 | 233 | 0.0 | 0.0 | 0.00 | 0.00 | 0.00 | 72 | 1002.5 |
| 20260505220214 | 28 | 233 | 0.0 | 0.0 | 0.00 | 0.00 | 0.00 | 72 | 1002.5 |
| 20260505220039 | -17 | 0.0 | 0.0 | 0.00 | 0.00 | 0.00 | 1002.5 | ||
| 20260505215703 | -17 | 0.0 | 0.0 | 0.00 | 0.00 | 0.00 | 1002.5 | ||
| 20260505215056 | -17 | 0.0 | 0.0 | 0.00 | 0.00 | 0.00 | 1002.6 | ||
| 20260505214556 | 29 | 164 | 0.0 | 0.0 | 0.00 | 0.00 | 0.00 | 72 | 1002.6 |
| 20260505214055 | -17 | 0.0 | 0.0 | 0.00 | 0.00 | 0.00 | 1002.8 | ||
| 20260505213554 | 29 | 245 | 0.0 | 0.0 | 0.00 | 0.00 | 0.00 | 72 | 1002.7 |
| 20260505213054 | 29 | 238 | 0.0 | 0.0 | 0.00 | 0.00 | 0.00 | 73 | 1002.8 |
| 20260505212552 | -17 | 0.0 | 0.0 | 0.00 | 0.00 | 0.00 | 1002.8 | ||
| 20260505212106 | 29 | 193 | 0.0 | 0.0 | 0.00 | 0.00 | 0.00 | 73 | 1002.8 |
| 20260505212034 | 29 | 172 | 0.0 | 0.0 | 0.00 | 0.00 | 0.00 | 73 | 1003.0 |
| 20260505211700 | 29 | 172 | 0.0 | 0.0 | 0.00 | 0.00 | 0.00 | 73 | 1003.0 |
| 20260505211050 | -17 | 0.0 | 0.0 | 0.00 | 0.00 | 0.00 | 1003.0 | ||
| 20260505210551 | -17 | 0.0 | 0.0 | 0.00 | 0.00 | 0.00 | 1003.0 | ||
| 20260505210104 | 29 | 247 | 0.0 | 0.0 | 0.00 | 0.00 | 0.00 | 73 | 1003.1 |
| 20260505205549 | 29 | 247 | 0.0 | 0.0 | 0.00 | 0.00 | 0.00 | 73 | 1003.0 |
| 20260505205315 | 29 | 245 | 0.0 | 0.0 | 0.00 | 0.00 | 0.00 | 72 | 1003.1 |
| 20260505205157 | 29 | 245 | 0.0 | 0.0 | 0.00 | 0.00 | 0.00 | 72 | 1003.1 |
| 20260505204547 | 29 | 244 | 0.0 | 0.0 | 0.00 | 0.00 | 0.00 | 72 | 1003.2 |
| 20260505204050 | 29 | 228 | 0.0 | 0.0 | 0.00 | 0.00 | 0.00 | 72 | 1003.3 |
| 20260505203807 | 29 | 204 | 0.0 | 0.0 | 0.00 | 0.00 | 0.00 | 73 | 1003.4 |
| 20260505203655 | 29 | 204 | 0.0 | 0.0 | 0.00 | 0.00 | 0.00 | 73 | 1003.4 |
| 20260505203049 | 29 | 261 | 0.0 | 0.0 | 0.00 | 0.00 | 0.00 | 72 | 1003.3 |
| 20260505202547 | 29 | 269 | 0.0 | 4.8 | 0.00 | 0.00 | 0.00 | 73 | 1003.4 |
| 20260505202048 | 28 | 223 | 0.0 | 4.8 | 0.00 | 0.00 | 0.00 | 74 | 1003.5 |
| 20260505201806 | 28 | 207 | 0.0 | 3.2 | 0.00 | 0.00 | 0.00 | 75 | 1003.5 |
| 20260505201653 | 28 | 207 | 0.0 | 3.2 | 0.00 | 0.00 | 0.00 | 75 | 1003.5 |
| 20260505201048 | 28 | 200 | 0.0 | 4.8 | 0.00 | 0.00 | 0.00 | 75 | 1003.6 |
| 20260505200545 | 28 | 189 | 0.0 | 11.3 | 0.00 | 0.00 | 0.00 | 74 | 1003.8 |
| 20260505195546 | 28 | 214 | 0.0 | 0.0 | 0.00 | 0.00 | 0.00 | 75 | 1003.9 |
| 20260505195316 | 28 | 238 | 0.0 | 0.0 | 0.00 | 0.00 | 0.00 | 74 | 1004.0 |
| 20260505195155 | 28 | 238 | 0.0 | 0.0 | 0.00 | 0.00 | 0.00 | 74 | 1004.0 |
| 20260505194546 | 28 | 255 | 0.0 | 0.0 | 0.00 | 0.00 | 0.00 | 75 | 1004.1 |
| 20260505194048 | 28 | 272 | 0.0 | 0.0 | 0.00 | 0.00 | 0.00 | 75 | 1004.1 |
| 20260505193546 | 28 | 266 | 0.0 | 0.0 | 0.00 | 0.00 | 0.00 | 76 | 1004.1 |
| 20260505193048 | 28 | 235 | 0.0 | 0.0 | 0.00 | 0.00 | 0.00 | 77 | 1004.1 |
| 20260505192544 | 28 | 188 | 0.0 | 0.0 | 0.00 | 0.00 | 0.00 | 76 | 1004.2 |
| 20260505192311 | 28 | 250 | 0.0 | 0.0 | 0.00 | 0.00 | 0.00 | 79 | 1004.4 |
| 20260505192154 | 28 | 250 | 0.0 | 0.0 | 0.00 | 0.00 | 0.00 | 79 | 1004.4 |
| 20260505191546 | 27 | 259 | 0.0 | 0.0 | 0.00 | 0.00 | 0.00 | 78 | 1004.4 |
| 20260505191315 | 27 | 254 | 0.0 | 0.0 | 0.00 | 0.00 | 0.00 | 77 | 1004.5 |
| 20260505191155 | 27 | 254 | 0.0 | 0.0 | 0.00 | 0.00 | 0.00 | 77 | 1004.5 |
| 20260505190544 | 27 | 244 | 0.0 | 4.8 | 0.00 | 0.00 | 0.00 | 76 | 1004.4 |
| 20260505190100 | 27 | 226 | 0.0 | 4.8 | 0.00 | 0.00 | 0.00 | 76 | 1004.4 |
| 20260505185545 | 28 | 258 | 0.0 | 0.0 | 0.00 | 0.00 | 0.00 | 76 | 1004.6 |
| 20260505185048 | 28 | 252 | 0.0 | 0.0 | 0.00 | 0.00 | 0.00 | 76 | 1004.5 |
| 20260505184546 | 28 | 196 | 0.0 | 0.0 | 0.00 | 0.00 | 0.00 | 76 | 1004.5 |
| 20260505184047 | 28 | 162 | 0.0 | 0.0 | 0.00 | 0.00 | 0.00 | 76 | 1004.6 |
| 20260505183543 | 27 | 274 | 0.0 | 0.0 | 0.00 | 0.03 | 0.00 | 76 | 1004.5 |
| 20260505183047 | 27 | 228 | 0.0 | 4.8 | 0.00 | 0.03 | 0.00 | 77 | 1004.6 |
| 20260505182543 | 27 | 154 | 0.0 | 4.8 | 0.00 | 0.03 | 0.00 | 76 | 1004.6 |
| 20260505182046 | 27 | 230 | 1.6 | 3.2 | 0.00 | 0.03 | 0.00 | 78 | 1004.7 |
| 20260505181545 | 27 | 173 | 0.0 | 3.2 | 0.00 | 0.03 | 0.00 | 78 | 1004.7 |
| 20260505181046 | 27 | 221 | 0.0 | 0.0 | 0.00 | 0.03 | 0.00 | 78 | 1004.7 |
| 20260505180544 | 27 | 276 | 0.0 | 0.0 | 0.00 | 0.03 | 0.00 | 79 | 1004.6 |
| 20260505180046 | 27 | 276 | 0.0 | 1.6 | 0.00 | 0.03 | 0.00 | 79 | 1004.7 |
| 20260505175543 | 27 | 272 | 0.0 | 1.6 | 0.00 | 0.03 | 0.00 | 79 | 1004.9 |
| 20260505175046 | 27 | 259 | 0.0 | 0.0 | 0.00 | 0.03 | 0.00 | 79 | 1004.8 |
| 20260505174544 | 27 | 259 | 0.0 | 0.0 | 0.00 | 0.03 | 0.00 | 80 | 1004.9 |
| 20260505174044 | 27 | 269 | 0.0 | 0.0 | 0.00 | 0.03 | 0.00 | 80 | 1005.0 |
| 20260505173819 | 26 | 240 | 0.0 | 0.0 | 0.00 | 0.03 | 0.00 | 80 | 1005.0 |
| 20260505173702 | 26 | 240 | 0.0 | 0.0 | 0.00 | 0.03 | 0.00 | 80 | 1005.0 |
| 20260505173045 | 26 | 240 | 0.0 | 0.0 | 0.00 | 0.03 | 0.00 | 81 | 1005.1 |
| 20260505172813 | 26 | 212 | 0.0 | 0.0 | 0.00 | 0.03 | 0.00 | 81 | 1005.2 |
| 20260505172651 | 26 | 212 | 0.0 | 0.0 | 0.00 | 0.03 | 0.00 | 81 | 1005.2 |
| 20260505172045 | 26 | 251 | 0.0 | 0.0 | 0.00 | 0.03 | 0.00 | 82 | 1005.1 |
| 20260505171542 | 26 | 274 | 0.0 | 0.0 | 0.00 | 0.03 | 0.00 | 81 | 1005.1 |
| 20260505171043 | 26 | 185 | 0.0 | 0.0 | 0.00 | 0.03 | 0.00 | 81 | 1005.2 |
| 20260505170542 | 26 | 234 | 0.0 | 0.0 | 0.00 | 0.03 | 0.00 | 81 | 1005.2 |
| 20260505170043 | 26 | 286 | 0.0 | 0.0 | 0.00 | 0.03 | 0.00 | 82 | 1005.2 |
| 20260505165542 | 26 | 196 | 0.0 | 0.0 | 0.00 | 0.03 | 0.00 | 82 | 1005.3 |
| 20260505165310 | 26 | 240 | 0.0 | 0.0 | 0.00 | 0.03 | 0.00 | 83 | 1005.3 |
| 20260505165151 | 26 | 240 | 0.0 | 0.0 | 0.00 | 0.03 | 0.00 | 83 | 1005.3 |
| 20260505164543 | 26 | 240 | 0.0 | 0.0 | 0.00 | 0.03 | 0.00 | 83 | 1005.3 |
| 20260505164046 | 25 | 240 | 0.0 | 0.0 | 0.00 | 0.03 | 0.00 | 83 | 1005.3 |
| 20260505163543 | 25 | 240 | 0.0 | 0.0 | 0.00 | 0.03 | 0.00 | 83 | 1005.4 |
| 20260505163044 | 25 | 240 | 0.0 | 0.0 | 0.00 | 0.03 | 0.00 | 83 | 1005.3 |
| 20260505162541 | 25 | 245 | 0.0 | 0.0 | 0.00 | 0.03 | 0.00 | 83 | 1005.4 |
| 20260505162046 | 25 | 245 | 0.0 | 0.0 | 0.00 | 0.03 | 0.00 | 83 | 1005.3 |
| 20260505161806 | -17 | 0.0 | 6.4 | 0.00 | 0.03 | 0.00 | 1005.2 | ||
| 20260505161649 | -17 | 0.0 | 6.4 | 0.00 | 0.03 | 0.00 | 1005.2 | ||
| 20260505161044 | 25 | 240 | 0.0 | 6.4 | 0.00 | 0.03 | 0.00 | 83 | 1005.2 |
| 20260505160539 | 25 | 200 | 0.0 | 0.0 | 0.00 | 0.03 | 0.00 | 83 | 1005.2 |
| 20260505153040 | 25 | 196 | 0.0 | 0.0 | 0.00 | 0.03 | 0.00 | 83 | 1005.1 |
| 20260505152538 | 25 | 159 | 0.0 | 0.0 | 0.00 | 0.03 | 0.00 | 83 | 1005.0 |
| 20260505152040 | 25 | 179 | 0.0 | 0.0 | 0.00 | 0.03 | 0.00 | 83 | 1005.1 |
| 20260505151540 | 25 | 182 | 0.0 | 0.0 | 0.00 | 0.03 | 0.00 | 84 | 1004.9 |
| 20260505151054 | 25 | 207 | 0.0 | 0.0 | 0.00 | 0.03 | 0.00 | 83 | 1004.9 |
| 20260505150539 | 25 | 197 | 0.0 | 0.0 | 0.00 | 0.03 | 0.00 | 83 | 1005.0 |
| 20260505140536 | 24 | 178 | 0.0 | 1.6 | 0.00 | 0.05 | 0.00 | 84 | 1004.6 |
| 20260505125037 | 23 | 31 | 0.0 | 0.0 | 0.00 | 0.05 | 0.00 | 83 | 1004.2 |
| 20260505124536 | 22 | 32 | 0.0 | 0.0 | 0.00 | 0.05 | 0.00 | 83 | 1004.1 |
| 20260505124036 | 22 | 213 | 0.0 | 0.0 | 0.00 | 0.05 | 0.00 | 82 | 1004.4 |
| 20260505123535 | 22 | 213 | 0.0 | 0.0 | 0.00 | 0.05 | 0.00 | 82 | 1004.6 |
| 20260505123040 | 22 | 213 | 0.0 | 0.0 | 0.00 | 0.05 | 0.00 | 82 | 1004.5 |
| 20260505122535 | 22 | 213 | 0.0 | 0.0 | 0.00 | 0.05 | 0.00 | 82 | 1004.5 |
| 20260505122039 | 22 | 257 | 0.0 | 0.0 | 0.00 | 0.05 | 0.00 | 82 | 1004.6 |
| 20260505121534 | 22 | 257 | 0.0 | 0.0 | 0.00 | 0.05 | 0.00 | 82 | 1004.4 |
| 20260505121258 | 22 | 257 | 0.0 | 0.0 | 0.00 | 0.05 | 0.00 | 83 | 1004.5 |
| 20260505121145 | 22 | 257 | 0.0 | 0.0 | 0.00 | 0.05 | 0.00 | 83 | 1004.5 |
| 20260505120534 | 22 | 238 | 0.0 | 0.0 | 0.00 | 0.05 | 0.00 | 83 | 1004.1 |
| 20260505120038 | 22 | 238 | 0.0 | 0.0 | 0.00 | 0.05 | 0.00 | 83 | 1004.1 |
| 20260505115754 | 22 | 238 | 0.0 | 0.0 | 0.00 | 0.05 | 0.00 | 83 | 1004.0 |
| 20260505115641 | 22 | 238 | 0.0 | 0.0 | 0.00 | 0.05 | 0.00 | 83 | 1004.0 |
| 20260505115036 | 22 | 252 | 0.0 | 0.0 | 0.00 | 0.05 | 0.00 | 83 | 1003.9 |
| 20260505114757 | 22 | 254 | 0.0 | 0.0 | 0.00 | 0.05 | 0.00 | 83 | 1004.0 |
| 20260505114641 | 22 | 254 | 0.0 | 0.0 | 0.00 | 0.05 | 0.00 | 83 | 1004.0 |
| 20260505114035 | 22 | 261 | 0.0 | 0.0 | 0.00 | 0.05 | 0.00 | 83 | 1004.4 |
| 20260505113532 | 22 | 261 | 0.0 | 0.0 | 0.00 | 0.05 | 0.00 | 83 | 1004.5 |
| 20260505113037 | 22 | 245 | 0.0 | 0.0 | 0.00 | 0.05 | 0.00 | 83 | 1004.3 |
| 20260505112534 | 22 | 245 | 0.0 | 1.6 | 0.00 | 0.05 | 0.00 | 83 | 1004.3 |
| 20260505112036 | 22 | 233 | 0.0 | 1.6 | 0.00 | 0.05 | 0.00 | 83 | 1004.2 |
| 20260505111534 | 22 | 235 | 0.0 | 0.0 | 0.00 | 0.08 | 0.00 | 83 | 1004.1 |
| 20260505111035 | 22 | 235 | 0.0 | 0.0 | 0.00 | 0.08 | 0.00 | 83 | 1004.1 |
| 20260505110545 | 22 | 212 | 0.0 | 0.0 | 0.00 | 0.08 | 0.00 | 83 | 1004.1 |
| 20260505102037 | 22 | 223 | 0.0 | 0.0 | 0.00 | 0.08 | 0.00 | 84 | 1004.1 |
| 20260505101527 | 22 | 223 | 0.0 | 0.0 | 0.00 | 0.08 | 0.00 | 84 | 1004.2 |
| 20260505101035 | 22 | 224 | 0.0 | 0.0 | 0.00 | 0.08 | 0.00 | 84 | 1004.2 |
| 20260505100532 | 22 | 206 | 0.0 | 0.0 | 0.00 | 0.08 | 0.00 | 84 | 1004.3 |
| 20260505100043 | 22 | 206 | 0.0 | 0.0 | 0.00 | 0.08 | 0.00 | 84 | 1004.3 |
| 20260505095531 | 22 | 206 | 0.0 | 0.0 | 0.00 | 0.08 | 0.00 | 84 | 1004.3 |
| 20260505095037 | 21 | 206 | 0.0 | 0.0 | 0.00 | 0.08 | 0.00 | 84 | 1004.3 |
| 20260505094531 | 21 | 206 | 0.0 | 0.0 | 0.00 | 0.08 | 0.00 | 84 | 1004.2 |
| 20260505094030 | 21 | 195 | 0.0 | 0.0 | 0.00 | 0.08 | 0.00 | 84 | 1004.3 |
| 20260505093525 | 21 | 195 | 0.0 | 0.0 | 0.00 | 0.08 | 0.00 | 84 | 1004.2 |
| 20260505093027 | 21 | 195 | 0.0 | 0.0 | 0.00 | 0.08 | 0.00 | 84 | 1004.4 |
| 20260505092531 | 21 | 195 | 0.0 | 0.0 | 0.00 | 0.08 | 0.00 | 84 | 1004.5 |
| 20260505092305 | 21 | 195 | 0.0 | 0.0 | 0.00 | 0.08 | 0.00 | 85 | 1004.5 |
| 20260505092145 | 21 | 195 | 0.0 | 0.0 | 0.00 | 0.08 | 0.00 | 85 | 1004.5 |
| 20260505091531 | 21 | 254 | 0.0 | 0.0 | 0.00 | 0.08 | 0.00 | 85 | 1004.5 |
| 20260505091036 | 21 | 250 | 0.0 | 0.0 | 0.00 | 0.08 | 0.00 | 85 | 1004.4 |
| 20260505090531 | 21 | 250 | 0.0 | 0.0 | 0.00 | 0.08 | 0.00 | 85 | 1004.5 |
| 20260505090036 | 21 | 250 | 0.0 | 0.0 | 0.00 | 0.08 | 0.00 | 85 | 1004.5 |
| 20260505085528 | 21 | 250 | 0.0 | 0.0 | 0.00 | 0.08 | 0.00 | 85 | 1004.5 |
| 20260505085035 | 21 | 250 | 0.0 | 0.0 | 0.00 | 0.08 | 0.00 | 85 | 1004.5 |
| 20260505084529 | 21 | 250 | 0.0 | 0.0 | 0.00 | 0.08 | 0.00 | 85 | 1004.4 |
| 20260505084039 | 21 | 250 | 0.0 | 0.0 | 0.00 | 0.08 | 0.00 | 85 | 1004.5 |
| 20260505083530 | 21 | 250 | 0.0 | 0.0 | 0.00 | 0.08 | 0.00 | 85 | 1004.5 |
| 20260505083037 | 21 | 250 | 0.0 | 0.0 | 0.00 | 0.08 | 0.00 | 85 | 1004.7 |
| 20260505082528 | 21 | 250 | 0.0 | 0.0 | 0.00 | 0.08 | 0.00 | 85 | 1004.8 |
| 20260505082033 | 21 | 251 | 0.0 | 0.0 | 0.00 | 0.08 | 0.00 | 85 | 1004.8 |
| 20260505081529 | 21 | 251 | 0.0 | 0.0 | 0.00 | 0.08 | 0.00 | 85 | 1004.8 |
| 20260505081034 | 21 | 251 | 0.0 | 0.0 | 0.00 | 0.08 | 0.00 | 85 | 1004.9 |
| 20260505080529 | 21 | 251 | 0.0 | 0.0 | 0.00 | 0.08 | 0.00 | 85 | 1004.9 |
| 20260505080039 | 21 | 251 | 0.0 | 0.0 | 0.00 | 0.08 | 0.00 | 85 | 1005.0 |
| 20260505075529 | 21 | 251 | 0.0 | 0.0 | 0.00 | 0.08 | 0.00 | 85 | 1004.9 |
| 20260505075257 | 21 | 252 | 0.0 | 0.0 | 0.00 | 0.08 | 0.00 | 85 | 1005.0 |
| 20260505075144 | 21 | 252 | 0.0 | 0.0 | 0.00 | 0.08 | 0.00 | 85 | 1005.0 |
| 20260505074529 | 21 | 252 | 0.0 | 0.0 | 0.00 | 0.08 | 0.00 | 85 | 1005.0 |
| 20260505074035 | 21 | 252 | 0.0 | 0.0 | 0.00 | 0.08 | 0.00 | 85 | 1005.0 |
| 20260505073527 | 21 | 252 | 0.0 | 0.0 | 0.00 | 0.08 | 0.00 | 85 | 1005.0 |
| 20260505073034 | 21 | 254 | 0.0 | 0.0 | 0.00 | 0.08 | 0.00 | 85 | 1005.0 |
| 20260505072524 | 21 | 254 | 0.0 | 0.0 | 0.00 | 0.08 | 0.00 | 85 | 1005.1 |
| 20260505072030 | 21 | 231 | 0.0 | 0.0 | 0.00 | 0.08 | 0.00 | 85 | 1005.1 |
| 20260505071523 | 21 | 231 | 0.0 | 0.0 | 0.00 | 0.10 | 0.00 | 84 | 1005.3 |
| 20260505071032 | 21 | 250 | 0.0 | 0.0 | 0.00 | 0.10 | 0.00 | 84 | 1005.2 |
| 20260505070527 | 21 | 238 | 0.0 | 0.0 | 0.00 | 0.10 | 0.00 | 84 | 1005.3 |
| 20260505070031 | 21 | 240 | 0.0 | 0.0 | 0.00 | 0.10 | 0.00 | 84 | 1005.3 |
| 20260505065527 | 21 | 240 | 0.0 | 0.0 | 0.00 | 0.10 | 0.00 | 84 | 1005.4 |
| 20260505065034 | 21 | 243 | 0.0 | 0.0 | 0.00 | 0.10 | 0.00 | 84 | 1005.4 |
| 20260505064527 | 21 | 243 | 0.0 | 0.0 | 0.00 | 0.10 | 0.00 | 84 | 1005.4 |
| 20260505064033 | 21 | 226 | 0.0 | 0.0 | 0.00 | 0.10 | 0.00 | 84 | 1005.4 |
| 20260505063527 | 21 | 220 | 0.0 | 0.0 | 0.00 | 0.10 | 0.00 | 84 | 1005.6 |
| 20260505063032 | 21 | 230 | 0.0 | 0.0 | 0.00 | 0.10 | 0.00 | 84 | 1005.8 |
| 20260505062527 | 21 | 230 | 0.0 | 0.0 | 0.00 | 0.10 | 0.00 | 84 | 1005.7 |
| 20260505062033 | 21 | 223 | 0.0 | 0.0 | 0.00 | 0.10 | 0.00 | 83 | 1005.7 |
| 20260505061526 | 21 | 224 | 0.0 | 0.0 | 0.00 | 0.10 | 0.00 | 83 | 1005.8 |
| 20260505061032 | 21 | 224 | 0.0 | 0.0 | 0.00 | 0.10 | 0.00 | 83 | 1005.9 |
| 20260505060742 | 21 | 268 | 0.0 | 0.0 | 0.00 | 0.10 | 0.00 | 83 | 1005.9 |
| 20260505060634 | 21 | 268 | 0.0 | 0.0 | 0.00 | 0.10 | 0.00 | 83 | 1005.9 |
| 20260505060034 | 21 | 268 | 0.0 | 0.0 | 0.00 | 0.10 | 0.00 | 83 | 1005.9 |
| 20260505055525 | 22 | 210 | 0.0 | 0.0 | 0.00 | 0.10 | 0.00 | 83 | 1005.9 |
| 20260505055032 | 22 | 210 | 0.0 | 0.0 | 0.00 | 0.10 | 0.00 | 82 | 1005.9 |
| 20260505054526 | 22 | 269 | 0.0 | 0.0 | 0.00 | 0.10 | 0.00 | 82 | 1005.9 |
| 20260505054032 | 22 | 269 | 0.0 | 0.0 | 0.00 | 0.10 | 0.00 | 82 | 1006.1 |
| 20260505053524 | 22 | 210 | 0.0 | 0.0 | 0.00 | 0.10 | 0.00 | 82 | 1006.1 |
| 20260505053034 | 22 | 209 | 0.0 | 0.0 | 0.00 | 0.10 | 0.00 | 82 | 1006.2 |
| 20260505052525 | 22 | 209 | 0.0 | 0.0 | 0.00 | 0.10 | 0.00 | 81 | 1006.3 |
| 20260505052033 | 22 | 250 | 0.0 | 0.0 | 0.00 | 0.10 | 0.00 | 81 | 1006.3 |
| 20260505051753 | 22 | 254 | 0.0 | 0.0 | 0.00 | 0.10 | 0.00 | 81 | 1006.3 |
| 20260505051633 | 22 | 254 | 0.0 | 0.0 | 0.00 | 0.10 | 0.00 | 81 | 1006.3 |
| 20260505051034 | 22 | 254 | 0.0 | 0.0 | 0.00 | 0.10 | 0.00 | 81 | 1006.5 |
| 20260505050525 | 22 | 254 | 0.0 | 0.0 | 0.00 | 0.10 | 0.00 | 80 | 1006.4 |
| 20260505041525 | 22 | 209 | 0.0 | 0.0 | 0.00 | 0.13 | 0.10 | 77 | 1006.2 |
| 20260505041033 | 22 | 209 | 0.0 | 3.2 | 0.00 | 0.13 | 0.10 | 77 | 1006.2 |
| 20260505040523 | 23 | 179 | 0.0 | 4.8 | 0.00 | 0.13 | 0.10 | 77 | 1006.3 |
| 20260505040034 | 23 | 230 | 0.0 | 4.8 | 0.00 | 0.13 | 0.10 | 77 | 1006.5 |
| 20260505035523 | 23 | 185 | 0.0 | 14.5 | 0.00 | 0.13 | 0.10 | 77 | 1006.5 |
| 20260505035036 | 23 | 244 | 1.6 | 14.5 | 0.00 | 0.13 | 0.10 | 76 | 1006.5 |
| 20260505034523 | 23 | 183 | 0.0 | 9.7 | 0.00 | 0.13 | 0.10 | 77 | 1006.5 |
| 20260505034031 | 23 | 243 | 1.6 | 9.7 | 0.00 | 0.13 | 0.10 | 77 | 1006.6 |
| 20260505033524 | 23 | 281 | 0.0 | 4.8 | 0.00 | 0.13 | 0.10 | 77 | 1006.7 |
| 20260505033039 | 23 | 245 | 0.0 | 1.6 | 0.00 | 0.13 | 0.10 | 77 | 1006.8 |
| 20260505032524 | 23 | 220 | 0.0 | 1.6 | 0.00 | 0.13 | 0.10 | 77 | 1006.7 |
| 20260505032033 | 23 | 233 | 0.0 | 0.0 | 0.00 | 0.13 | 0.10 | 77 | 1006.7 |
| 20260505031523 | 23 | 233 | 0.0 | 0.0 | 0.00 | 0.13 | 0.10 | 76 | 1006.7 |
| 20260505031036 | 23 | 227 | 0.0 | 1.6 | 0.00 | 0.13 | 0.10 | 76 | 1006.6 |
| 20260505030522 | 23 | 207 | 0.0 | 1.6 | 0.00 | 0.13 | 0.10 | 76 | 1006.7 |
| 20260505030035 | 23 | 171 | 0.0 | 0.0 | 0.00 | 0.13 | 0.10 | 76 | 1006.5 |
| 20260505025521 | 23 | 252 | 0.0 | 0.0 | 0.00 | 0.13 | 0.10 | 76 | 1006.4 |
| 20260505025037 | 23 | 210 | 0.0 | 0.0 | 0.00 | 0.13 | 0.10 | 76 | 1006.3 |